This demonstration page uses our WeatherBlox Daily Observations layout. Learn more.

Left ArrowRight Arrow

38.20091, -84.87328

Hourly Observations for August 4, 2016

Temp ( °F °C ) Dew Point ( °F °C ) Humidity (%) Winds ( mph kmh ) Pressure ( in mb ) Visibility ( mi km ) Precip ( " mm )
12:53 am 00:53 Cloudy with Mist and Fog 76 24.4 72 22.2 88 88 Calm 29.96 1015 5 8 0.00 0.00
1:53 am 01:53 Mostly Cloudy with Mist and Fog 76 24.4 72 22.2 88 88 ESE 3 6 29.96 1014 6 10 0.00 0.00
2:53 am 02:53 Clear with Mist and Fog 75 23.9 71 21.7 88 88 Calm 29.94 1014 5 8 0.00 0.00
3:53 am 03:53 Clear with Mist and Fog 73 22.8 70 21.1 90 90 Calm 29.95 1014 3 5 0.00 0.00
4:40 am 04:40 Mostly Clear with Mist and Fog 73 22.8 70 21.1 90 90 Calm 29.94 1014 3 4 0.00 0.00
4:53 am 04:53 Mostly Clear with Mist and Fog 73 22.8 70 21.1 90 90 Calm 29.95 1014 4 6 0.00 0.00
5:53 am 05:53 Partly Cloudy with Mist and Fog 73 22.8 70 21.1 90 90 Calm 29.95 1014 4 6 0.00 0.00
6:53 am 06:53 Cloudy with Mist and Fog 72 22.2 69 20.6 91 91 Calm 29.96 1015 3 5 0.00 0.00
7:53 am 07:53 Mostly Cloudy with Mist and Fog 74 23.3 71 21.7 91 91 Calm 29.97 1015 3 5 0.00 0.00
8:53 am 08:53 Cloudy 77 25 71 21.7 82 82 Calm 29.98 1015 7 11 0.00 0.00
9:53 am 09:53 Sunny 80 26.7 71 21.7 74 74 Calm 29.98 1015 10 16 0.00 0.00
10:53 am 10:53 Mostly Cloudy 84 28.9 72 22.2 67 67 SSE 3 6 29.98 1015 10 16 0.00 0.00
11:53 am 11:53 Mostly Sunny 87 30.6 71 21.7 59 59 ESE 5 7 29.98 1015 10 16 0.00 0.00
12:53 pm 12:53 Mostly Sunny 88 31.1 69 20.6 54 54 Calm 29.97 1015 10 16 0.00 0.00
1:53 pm 13:53 Mostly Sunny 90 32.2 69 20.6 50 50 Calm 29.94 1014 10 16 0.00 0.00
2:53 pm 14:53 Mostly Sunny 90 32.2 68 20 48 48 E 6 9 29.93 1014 10 16 0.00 0.00
3:42 pm 15:42 Mostly Cloudy with Nearby Thunderstorms 88 31.1 69 20.6 54 54 E 8 13 29.88 1012 10 16 0.00 0.00
3:53 pm 15:53 Cloudy 88 31.1 70 21.1 55 55 E 6 9 29.92 1013 10 16 0.00 0.00
4:10 pm 16:10 Partly Cloudy with Nearby Thunderstorms 87 30.6 69 20.6 55 55 E 5 7 29.88 1012 10 16 0.00 0.00
4:27 pm 16:27 Mostly Cloudy with Thunderstorms 85 29.4 69 20.6 59 59 undefined N/A 29.91 1013 10 16 0.00 0.00
4:44 pm 16:44 Cloudy with Strong Thunderstorms 78 25.6 72 22.2 82 82 SW 17 28 29.91 1013 2 3 0.14 3.56
4:50 pm 16:50 Cloudy with Nearby Thunderstorms 79 26 72 22 79 79 WNW 6 9 29.94 1014 1 1 0.26 6.60
4:53 pm 16:53 Cloudy with Nearby Thunderstorms 80 26.7 70 21.1 71 71 W 7 11 29.93 1014 1 1 0.33 8.38
5:06 pm 17:06 Cloudy with Thunderstorms 77 25 73 22.8 88 88 NNE 7 11 29.94 1014 1 2 0.15 3.81
5:09 pm 17:09 Cloudy with Thunderstorms 77 25 73 22.8 88 88 N 9 15 29.94 1014 2 3 0.15 3.81
5:19 pm 17:19 Cloudy with Strong Thunderstorms 77 25 71 21.7 82 82 VRB 3 6 29.94 1014 1 2 0.27 6.86
5:27 pm 17:27 Cloudy with Strong Thunderstorms 77 25 72 22.2 85 85 NNW 5 7 29.94 1014 1 1 0.34 8.64
5:31 pm 17:31 Cloudy with Heavy Rain 76 24.4 72 22.2 88 88 Calm 29.94 1014 1 2 0.35 8.89
5:37 pm 17:37 Cloudy with Rain 76 24.4 72 22.2 88 88 Calm 29.94 1014 2 3 0.36 9.14
5:40 pm 17:40 Cloudy with Nearby Thunderstorms 76 24.4 72 22.2 88 88 undefined N/A 29.94 1014 3 5 0.37 9.40
5:53 pm 17:53 Cloudy with Nearby Thunderstorms 76 24.4 71 21.7 85 85 S 6 9 29.94 1014 6 10 0.37 9.40
6:09 pm 18:09 Mostly Cloudy 76 24.4 72 22.2 88 88 SSE 5 7 29.94 1014 7 11 0.00 0.03
6:53 pm 18:53 Mostly Sunny 79 26.1 73 22.8 82 82 E 5 7 29.94 1014 9 14 0.01 0.25
7:53 pm 19:53 Sunny 79 26.1 71 21.7 77 77 Calm 29.93 1014 10 16 0.00 0.00
8:53 pm 20:53 Clear with Mist and Fog 77 25 73 22.8 88 88 Calm 29.92 1013 6 10 0.00 0.00
9:53 pm 21:53 Clear 76 24.4 72 22.2 88 88 Calm 29.93 1013 8 13 0.00 0.00
10:53 pm 22:53 Clear 75 23.9 71 21.7 88 88 SSE 5 7 29.92 1013 9 14 0.00 0.00
11:53 pm 23:53 Clear 74 23.3 71 21.7 91 91 Calm 29.93 1014 9 14 0.00 0.00

Powered by AerisWeather